Torna al catalogo

SL-16 DEB

AttivoLEO
NORAD 39860·DEBRIS·🇷🇺 Russia

Lanciato Dec 25, 1992 da Baikonur Cosmodrome

Loading…

Prossimi Passaggi (prossime 24 ore)

TLE

In scadenzaSource: Space-Track

Epoca: Sep 12, 2026, 09:41 UTC

1 39860U 92093LN  26255.40397725  .00000853  00000-0  32909-3 0  9998
2 39860  70.7858 163.0822 0026920 142.4093 217.8926 14.32975239639049

Traccia SL-16 DEB in tempo reale con AllMySat

Download on the App Store